Location: Dougherty
(37.7110°N, 121.9097°W)
Time: 11:21:00
(UTC+00:00)

Daily predictions for brighter satellites

Satellite Brightness Start Highest point End
(mag) Time Altitude Azimuth Time Altitude Azimuth Time Altitude Azimuth
Meteor 2-20 4.4 12:25:51 16° N 12:30:53 81° E 12:37:01 10° S
Cosmos 2100 Rocket 4.2 12:30:15 10° S 12:36:23 69° E 12:42:29 10° NNE
Cosmos 1447 Rocket 4.4 12:37:48 29° NNW 12:41:12 72° W 12:47:28 10° S
BREEZE-M DEB (TANK) 4.3 12:52:19 23° NNE 12:52:19 23° NNE 12:53:57 10° ENE
COSMOS 2487 3.1 12:52:02 51° ESE 12:52:14 52° ESE 12:55:36 10° NNE
Lacrosse 5 4.1 12:55:56 12° N 12:55:56 12° N 12:56:56 10° N
Cosmos 2360 Rocket 4.0 12:50:23 10° N 12:55:17 29° ENE 13:00:08 10° ESE
Cosmos 1802 Rocket 4.2 12:49:08 10° S 12:55:31 75° E 13:01:56 10° N
STARLINK-28 4.5 12:57:34 37° N 12:57:34 37° N 13:00:34 10° NE
ATLAS 2AS CENTAUR R/B 3.2 12:51:05 16° NNW 12:57:12 62° NE 13:04:03 10° SE
ALOS 4.1 12:53:08 10° NNE 12:57:20 32° E 13:01:30 10° SSE
ATLAS CENTAUR R/B 1.6 12:57:14 56° WSW 12:58:09 72° WNW 13:02:59 10° NNE
STARLINK-53 4.4 12:59:05 38° N 12:59:05 38° N 13:02:10 10° NE
Cosmos 2150 Rocket 4.2 12:52:49 10° SSW 12:58:15 78° ESE 13:03:42 10° NNE
STARLINK-54 4.4 13:00:44 37° N 13:00:44 37° N 13:03:51 10° NE
SL-16 R/B 2.3 12:55:50 19° NNW 13:00:00 74° ENE 13:05:39 10° SSE
Cosmos 1151 Rocket 4.1 12:56:19 10° N 13:00:31 44° E 13:04:39 10° SSE
Cosmos 1980 Rocket 3.4 13:03:02 25° SW 13:03:02 25° SW 13:05:59 10° SSW
CZ-3B R/B 3.4 12:57:37 17° SW 13:01:18 25° S 13:05:06 10° SE
Okean O Rocket 3.7 12:58:52 10° NE 13:02:35 28° E 13:06:18 10° SSE
Abrixas rocket 4.1 13:05:29 20° NNE 13:05:29 20° NNE 13:06:44 10° NE
STARLINK-37 4.4 13:05:20 36° NNW 13:05:20 36° NNW 13:08:38 10° NE
STARLINK-55 4.4 13:05:29 37° NNW 13:05:29 37° NNW 13:08:49 10° NE
Cosmos 2173 Rocket 3.9 13:00:18 10° SSW 13:06:33 73° W 13:12:45 10° N
STARLINK-34 4.4 13:07:11 36° NNW 13:07:11 36° NNW 13:10:30 10° NE
H-2A R/B 3.3 13:05:34 11° S 13:06:37 13° SSE 13:08:19 10° ESE
Cosmos 2322 Rocket 2.4 13:02:28 14° NNW 13:07:20 73° ENE 13:13:00 10° SSE
STARLINK-24 4.4 13:07:58 36° NNW 13:07:58 36° NNW 13:11:21 10° NE
STARLINK-81 4.3 13:08:28 39° NNW 13:08:28 39° NNW 13:12:00 10° NE
Cosmos 1328 Rocket 3.9 13:05:18 10° N 13:09:36 63° E 13:13:50 10° SSE
SKYMED 2 4.3 13:05:43 10° SSE 13:09:55 53° ENE 13:14:10 10° N
Cosmos 158 Rocket 4.2 13:10:16 41° WSW 13:10:16 41° WSW 13:14:45 10° S
STARLINK-77 4.3 13:11:39 37° NNW 13:11:39 37° NNW 13:15:16 10° NE
Cosmos 372 Rocket 3.8 13:06:59 10° SSW 13:12:09 81° WNW 13:17:18 10° NNE
Cosmos 1825 2.6 13:08:34 10° S 13:12:16 61° E 13:16:00 10° NNE
CZ-2C R/B 3.2 13:07:58 10° N 13:11:00 31° NW 13:11:00 31° NW
STARLINK-25 4.3 13:13:21 36° NNW 13:13:21 36° NNW 13:17:01 10° NE
Cosmos 2061 Rocket 3.9 13:07:34 10° S 13:13:49 89° W 13:20:04 10° N
STARLINK-71 4.5 13:15:14 33° NNW 13:15:14 33° NNW 13:18:49 10° NNE
STARLINK-79 4.3 13:16:26 35° NNW 13:16:26 35° NNW 13:20:12 10° NNE
STARLINK-78 4.4 13:18:06 34° NNW 13:18:06 34° NNW 13:21:53 10° NNE
ASTEX 1 3.9 13:14:26 10° SSW 13:19:00 37° W 13:20:42 29° NW
Shenzhou-11 Module 1.7 13:20:45 77° SE 13:20:45 77° SE 13:23:18 10° ESE
Cosmos 1437 3.2 13:18:14 10° S 13:21:12 56° E 13:24:13 10° NNE
STARLINK-49 4.4 13:21:15 32° NW 13:21:26 32° NNW 13:25:10 10° NNE
Cosmos 1484 Rocket 2.7 13:17:48 10° N 13:21:50 74° WNW 13:25:48 10° SSW
STARLINK-27 4.5 13:22:53 31° NW 13:23:07 31° NNW 13:26:51 10° NNE
STARLINK-74 4.5 13:24:27 30° NW 13:24:45 31° NNW 13:28:28 10° NNE
SL-4 R/B 3.2 13:21:55 22° NNW 13:24:48 47° NNE 13:29:25 10° ESE
Cosmos 1864 Rocket 4.5 13:18:57 10° S 13:25:05 85° E 13:31:17 10° N
Cosmos 2151 3.5 13:21:29 10° SW 13:25:27 36° WNW 13:29:27 10° N
OAO 2 Rocket 4.1 13:25:09 25° WSW 13:27:32 41° SSW 13:32:17 10° SE
Cosmos 1408 Rocket 3.5 13:25:49 10° SSW 13:30:03 58° W 13:34:20 10° N
COSMOS 2455 2.9 13:25:56 18° NW 13:30:24 58° WSW 13:36:15 10° S
FENGYUN 3A 4.0 13:25:12 10° NNE 13:30:36 71° E 13:35:59 10° S
MOS 1-B 4.3 13:26:05 10° N 13:31:54 78° WNW 13:37:40 10° SSW
OAO 3 Rocket 3.8 13:32:05 23° WSW 13:34:42 46° SSW 13:39:17 10° ESE
Cosmos 1500 Rocket 3.8 13:33:02 10° S 13:37:28 72° E 13:41:55 10° NNE
Delta 2 Rocket 3.8 13:34:43 22° WSW 13:37:33 67° S 13:42:32 10° E
Helios 1A Rocket 3.1 13:33:56 10° NNE 13:38:01 73° ESE 13:42:03 10° S
Cosmos 2298 Rocket 4.4 13:35:19 10° SW 13:40:15 39° WNW 13:45:13 10° N
Cosmos 1400 Rocket 4.1 13:36:36 10° N 13:40:28 41° ENE 13:44:15 10° SSE
CZ-4B R/B 3.4 13:37:57 10° NNE 13:43:24 76° ESE 13:48:55 10° S
Cosmos 1048 Rocket 4.2 13:38:13 10° NNW 13:43:37 75° ENE 13:48:55 10° SSE
Cosmos 2219 Rocket 4.2 13:40:32 10° N 13:45:07 25° ENE 13:49:42 10° ESE
Cosmos 1408 3.4 13:43:15 10° SW 13:46:29 29° WNW 13:49:44 10° NNW
Cosmos 2333 Rocket 4.1 13:42:18 10° N 13:47:09 27° ENE 13:51:59 10° ESE
COSMO-SKYMED 1 3.0 13:53:49 10° S 13:57:54 41° W 14:02:01 10° NNW
Cosmos 1725 Rocket 4.1 13:52:17 10° SSW 13:58:21 53° W 14:04:31 10° N
Cosmos 2016 Rocket 4.4 13:53:14 10° SSW 13:59:04 41° WNW 14:05:00 10° N
NOSS 3-4 (A) 4.0 14:01:03 10° NW 14:08:12 66° WSW 14:15:58 10° SSE
NOSS 3-4 (C) 4.0 14:01:09 10° NW 14:08:18 67° WSW 14:16:04 10° SSE
PAYLOAD B 4.5 14:05:22 10° N 14:10:34 45° WNW 14:15:46 10° SW
USA 116 3.9 14:09:31 10° SSW 14:12:31 36° W 14:15:46 10° NNW
Meteor 1-26 Rocket 4.2 14:08:02 10° NNW 14:13:42 78° W 14:19:12 10° S
BREEZE-M DEB (TANK) 3.5 14:21:57 10° W 14:23:31 16° SW 14:25:36 10° S
Cosmos 1269 Rocket 4.2 14:20:24 10° NNW 14:25:43 81° ENE 14:31:00 10° SSE
Cosmos 494 Rocket 4.0 14:20:58 10° NNW 14:26:14 84° WSW 14:31:25 10° SSE
USA 267 4.2 14:19:57 10° NE 14:26:19 53° SE 14:32:39 10° SSW
Cosmos 2237 4.5 14:22:02 10° NNW 14:27:34 51° WSW 14:33:02 10° S
Tsikada Rocket 4.4 14:21:43 10° NNW 14:27:39 42° W 14:33:30 10° SSW
